QPF
0.00 0.00 0.00 0.00 0.00 0.00 0.00 0.00 0.00 0.00 0.00 0.00 0.00 0.00 0.00 0.00 0.00 0.00 0.00 0.00 0.00 0.00 0.00 0.00 0.00 0.00 0.00 0.00 0.00 0.00 0.00 0.00 0.00 0.00 0.00 0.00 0.00 0.00 0.00 0.00 0.00 0.00 0.00
0.00 0.00 0.00 0.00 0.00 0.00 0.00 0.00 0.00 0.00 0.00 0.00 0.00 0.00 0.00 0.00 0.00 0.00 0.00 0.00 0.00 0.00 0.00 0.00 0.00 0.00 0.00 0.00 0.00 0.00 0.00 0.00 0.00 0.00 0.00 0.00 0.00 0.00 0.00 0.00 0.00 0.00 0.00
0.00 0.00 0.00 0.00 0.00 0.00 0.00 0.00 0.00 0.00 0.00 0.00 0.00 0.00 0.00 0.00 0.00 0.00 0.00 0.00 0.00 0.00 0.00 0.00 0.00 0.00 0.00 0.00 0.00 0.00 0.00 0.00 0.00 0.00 0.00 0.00 0.00 0.00 0.00 0.00 0.00 0.00 0.00
0.00 0.00 0.00 0.00 0.00 0.00 0.00 0.00 0.00 0.00 0.00 0.00 0.00 0.00 0.00 0.00 0.00 0.00 0.00 0.00 0.00 0.00 0.00 0.00 0.00 0.00 0.00 0.00 0.00 0.00 0.00 0.00 0.00 0.00 0.00 0.00 0.00 0.00 0.00 0.00 0.00 0.00 0.00
0.00 0.00 0.00 0.00 0.00 0.00 0.00 0.00 0.00 0.00 0.00 0.00 0.00 0.00 0.00 0.00 0.00 0.00 0.00 0.00 0.00 0.00 0.00 0.00 0.00 0.00 0.00 0.00 0.00 0.00 0.00 0.00 0.00 0.00 0.00 0.00 0.00 0.00 0.00 0.00 0.00 0.00 0.00
0.00 0.00 0.00 0.00 0.00 0.00 0.00 0.00 0.00 0.00 0.00 0.00 0.00 0.00 0.00 0.00 0.00 0.00 0.00 0.00 0.00 0.00 0.00 0.00 0.00 0.00 0.00 0.00 0.00 0.00 0.00 0.00 0.00 0.00 0.00 0.00 0.00 0.00 0.00 0.00 0.00 0.00 0.00
0.00 0.00 0.00 0.00 0.00 0.00 0.00 0.00 0.00 0.00 0.00 0.00 0.00 0.00 0.00 0.00 0.00 0.00 0.00 0.00 0.00 0.00 0.00 0.00 0.00 0.00 0.00 0.00 0.00 0.00 0.00 0.00 0.00 0.00 0.01 0.00 0.00 0.00 0.00 0.00 0.00 0.00 0.00
0.00 0.00 0.00 0.00 0.00 0.00 0.00 0.00 0.00 0.00 0.00 0.00 0.00 0.00 0.00 0.00 0.00 0.00 0.00 0.00 0.00 0.00 0.00 0.00 0.00 0.00 0.00 0.00 0.00 0.00 0.00 0.00 0.00 0.00 0.00 0.00 0.00 0.00 0.01 0.02 0.02 0.02 0.01
0.00 0.00 0.00 0.00 0.00 0.00 0.00 0.00 0.00 0.00 0.00 0.00 0.00 0.00 0.00 0.00 0.00 0.00 0.00 0.00 0.00 0.00 0.00 0.00 0.00 0.00 0.00 0.00 0.00 0.00 0.00 0.00 0.00 0.00 0.00 0.00 0.00 0.01 0.01 0.01 0.01 0.01 0.00
0.00 0.00 0.00 0.00 0.00 0.00 0.00 0.00 0.00 0.00 0.00 0.00 0.00 0.00 0.00 0.00 0.00 0.00 0.00 0.00 0.00 0.00 0.00 0.00 0.00 0.00 0.00 0.00 0.00 0.00 0.00 0.00 0.00 0.00 0.00 0.00 0.00 0.00 0.00 0.00 0.00 0.01 0.01
0.00 0.00 0.00 0.00 0.00 0.00 0.00 0.00 0.00 0.00 0.00 0.00 0.00 0.00 0.00 0.00 0.00 0.00 0.00 0.00 0.00 0.00 0.00 0.00 0.00 0.00 0.00 0.00 0.00 0.00 0.00 0.00 0.00 0.00 0.00 0.00 0.00 0.00 0.00 0.00 0.00 0.00 0.01
0.01 0.01 0.00 0.00 0.00 0.00 0.00 0.00 0.00 0.00 0.00 0.00 0.00 0.00 0.00 0.00 0.00 0.00 0.00 0.00 0.00 0.01 0.01 0.01 0.01 0.00 0.00 0.00 0.00 0.00 0.00 0.00 0.00 0.00 0.00 0.00 0.00 0.00 0.00 0.00 0.00 0.00 0.00
0.01 0.01 0.01 0.02 0.02 0.02 0.02 0.02 0.02 0.02 0.02 0.01 0.01 0.01 0.01 0.01 0.01 0.01 0.01 0.02 0.01 0.01 0.01 0.01 0.01 0.01 0.01 0.00 0.00 0.00 0.00 0.00 0.00 0.00 0.00 0.00 0.00 0.00 0.00 0.00 0.00 0.00 0.00
0.02 0.02 0.02 0.03 0.04 0.05 0.05 0.06 0.07 0.07 0.07 0.07 0.06 0.05 0.04 0.04 0.03 0.02 0.03 0.06 0.04 0.03 0.02 0.02 0.01 0.01 0.01 0.00 0.00 0.00 0.00 0.00 0.00 0.00 0.00 0.00 0.00 0.00 0.00 0.00 0.00 0.00 0.00
0.02 0.02 0.02 0.03 0.04 0.06 0.07 0.08 0.09 0.10 0.11 0.14 0.14 0.14 0.14 0.11 0.09 0.09 0.09 0.10 0.07 0.05 0.05 0.04 0.03 0.02 0.02 0.01 0.01 0.00 0.00 0.00 0.00 0.00 0.00 0.00 0.00 0.00 0.00 0.00 0.00 0.00 0.01
0.02 0.02 0.02 0.02 0.03 0.04 0.04 0.05 0.07 0.09 0.11 0.15 0.16 0.15 0.13 0.12 0.14 0.18 0.17 0.14 0.10 0.08 0.09 0.08 0.05 0.04 0.03 0.02 0.01 0.01 0.00 0.00 0.00 0.00 0.00 0.00 0.00 0.00 0.00 0.00 0.00 0.00 0.01
0.02 0.02 0.02 0.03 0.03 0.03 0.03 0.04 0.04 0.07 0.09 0.11 0.12 0.12 0.10 0.09 0.12 0.15 0.17 0.16 0.14 0.09 0.07 0.07 0.05 0.04 0.04 0.03 0.02 0.01 0.00 0.00 0.00 0.00 0.00 0.00 0.00 0.00 0.00 0.00 0.00 0.00 0.00
0.01 0.02 0.02 0.03 0.03 0.03 0.03 0.04 0.04 0.05 0.08 0.08 0.09 0.10 0.09 0.08 0.10 0.14 0.17 0.21 0.21 0.13 0.05 0.05 0.06 0.05 0.04 0.03 0.01 0.01 0.00 0.00 0.00 0.00 0.00 0.00 0.00 0.00 0.01 0.00 0.00 0.01 0.01
0.01 0.02 0.02 0.02 0.02 0.03 0.03 0.03 0.04 0.05 0.06 0.07 0.08 0.10 0.10 0.10 0.12 0.16 0.19 0.17 0.11 0.07 0.05 0.06 0.06 0.05 0.04 0.02 0.01 0.00 0.00 0.00 0.00 0.00 0.00 0.00 0.00 0.00 0.01 0.00 0.00 0.01 0.01
0.01 0.02 0.02 0.03 0.03 0.03 0.03 0.03 0.03 0.04 0.05 0.05 0.05 0.06 0.09 0.13 0.17 0.18 0.17 0.11 0.07 0.05 0.05 0.06 0.05 0.03 0.02 0.01 0.00 0.00 0.00 0.00 0.00 0.00 0.00 0.00 0.00 0.01 0.01 0.01 0.01 0.01 0.01
0.02 0.02 0.03 0.04 0.04 0.04 0.04 0.03 0.03 0.04 0.04 0.04 0.04 0.05 0.07 0.08 0.08 0.08 0.08 0.07 0.06 0.05 0.05 0.04 0.03 0.02 0.01 0.00 0.00 0.00 0.00 0.00 0.00 0.00 0.00 0.00 0.00 0.01 0.01 0.01 0.01 0.01 0.01
0.04 0.04 0.04 0.05 0.05 0.05 0.05 0.05 0.05 0.05 0.05 0.05 0.06 0.10 0.13 0.10 0.08 0.07 0.06 0.06 0.06 0.05 0.04 0.03 0.02 0.01 0.00 0.00 0.00 0.00 0.00 0.00 0.00 0.00 0.00 0.00 0.01 0.01 0.01 0.01 0.00 0.00 0.01
0.05 0.05 0.05 0.06 0.06 0.06 0.06 0.06 0.06 0.06 0.06 0.07 0.09 0.13 0.13 0.08 0.07 0.06 0.05 0.05 0.05 0.04 0.03 0.01 0.01 0.00 0.00 0.00 0.00 0.00 0.00 0.00 0.00 0.00 0.00 0.01 0.01 0.01 0.01 0.01 0.00 0.00 0.00
0.04 0.04 0.05 0.05 0.05 0.06 0.06 0.06 0.07 0.07 0.08 0.10 0.10 0.08 0.06 0.06 0.06 0.06 0.06 0.05 0.04 0.02 0.01 0.00 0.00 0.00 0.00 0.00 0.00 0.00 0.00 0.00 0.00 0.00 0.00 0.01 0.01 0.01 0.01 0.01 0.00 0.00 0.00
0.04 0.04 0.04 0.05 0.05 0.05 0.06 0.06 0.07 0.08 0.09 0.09 0.08 0.08 0.08 0.08 0.07 0.06 0.05 0.04 0.02 0.01 0.00 0.00 0.00 0.00 0.00 0.00 0.00 0.00 0.00 0.00 0.00 0.00 0.01 0.02 0.02 0.01 0.01 0.00 0.00 0.00 0.00
0.04 0.04 0.04 0.04 0.05 0.05 0.05 0.06 0.07 0.07 0.08 0.08 0.08 0.08 0.08 0.07 0.06 0.04 0.03 0.01 0.01 0.00 0.00 0.00 0.00 0.00 0.00 0.00 0.00 0.00 0.00 0.00 0.00 0.01 0.02 0.02 0.01 0.01 0.00 0.00 0.00 0.00 0.00
MSLP
1007.50 1007.42 1007.35 1007.32 1007.35 1007.47 1007.72 1008.11 1008.63 1009.27 1010.00 1010.78 1011.59 1012.39 1013.16 1013.90 1014.60 1015.28 1015.95 1016.62 1017.30 1017.98 1018.67 1019.36 1020.03 1020.68 1021.32 1021.93 1022.52 1023.08 1023.60 1024.06 1024.44 1024.73 1024.90 1024.95 1024.87 1024.68 1024.40 1024.07 1023.71 1023.34 1023.00
1007.66 1007.44 1007.23 1007.05 1006.95 1006.96 1007.11 1007.40 1007.84 1008.41 1009.07 1009.79 1010.54 1011.29 1012.03 1012.74 1013.44 1014.13 1014.83 1015.55 1016.29 1017.05 1017.82 1018.59 1019.35 1020.09 1020.80 1021.49 1022.15 1022.77 1023.34 1023.85 1024.27 1024.57 1024.75 1024.78 1024.68 1024.44 1024.11 1023.70 1023.27 1022.83 1022.41
1007.80 1007.45 1007.10 1006.79 1006.57 1006.46 1006.50 1006.70 1007.04 1007.52 1008.10 1008.74 1009.42 1010.10 1010.78 1011.46 1012.13 1012.83 1013.56 1014.32 1015.12 1015.96 1016.81 1017.67 1018.52 1019.35 1020.15 1020.90 1021.62 1022.29 1022.90 1023.44 1023.88 1024.20 1024.39 1024.42 1024.30 1024.05 1023.68 1023.25 1022.77 1022.29 1021.84
1007.95 1007.46 1006.98 1006.54 1006.20 1005.98 1005.91 1006.00 1006.25 1006.64 1007.12 1007.68 1008.27 1008.88 1009.49 1010.12 1010.76 1011.45 1012.18 1012.98 1013.84 1014.74 1015.67 1016.61 1017.54 1018.44 1019.31 1020.12 1020.89 1021.59 1022.23 1022.78 1023.24 1023.57 1023.77 1023.82 1023.72 1023.49 1023.15 1022.73 1022.27 1021.80 1021.34
1008.11 1007.49 1006.89 1006.33 1005.87 1005.53 1005.36 1005.35 1005.50 1005.79 1006.18 1006.65 1007.16 1007.69 1008.23 1008.80 1009.41 1010.08 1010.81 1011.63 1012.51 1013.46 1014.44 1015.44 1016.43 1017.39 1018.29 1019.14 1019.93 1020.65 1021.30 1021.86 1022.32 1022.68 1022.91 1023.01 1022.97 1022.81 1022.54 1022.19 1021.80 1021.37 1020.95
1008.28 1007.56 1006.84 1006.17 1005.59 1005.15 1004.87 1004.76 1004.82 1005.02 1005.33 1005.72 1006.15 1006.61 1007.10 1007.62 1008.19 1008.82 1009.54 1010.35 1011.24 1012.20 1013.21 1014.23 1015.24 1016.22 1017.15 1018.00 1018.79 1019.51 1020.15 1020.72 1021.20 1021.59 1021.87 1022.04 1022.09 1022.04 1021.89 1021.66 1021.36 1021.03 1020.67
1008.46 1007.65 1006.84 1006.06 1005.38 1004.84 1004.46 1004.26 1004.24 1004.36 1004.60 1004.93 1005.30 1005.71 1006.15 1006.63 1007.15 1007.75 1008.44 1009.22 1010.10 1011.04 1012.04 1013.05 1014.06 1015.03 1015.94 1016.78 1017.55 1018.25 1018.89 1019.45 1019.95 1020.38 1020.73 1020.99 1021.16 1021.25 1021.24 1021.15 1020.98 1020.75 1020.46
1008.64 1007.77 1006.87 1006.01 1005.23 1004.60 1004.14 1003.86 1003.77 1003.83 1004.01 1004.29 1004.62 1005.00 1005.40 1005.85 1006.34 1006.91 1007.56 1008.30 1009.14 1010.04 1011.00 1011.98 1012.95 1013.88 1014.76 1015.58 1016.32 1017.00 1017.62 1018.19 1018.71 1019.19 1019.61 1019.97 1020.27 1020.49 1020.62 1020.67 1020.63 1020.50 1020.27
1008.80 1007.88 1006.93 1006.00 1005.15 1004.43 1003.89 1003.55 1003.39 1003.40 1003.54 1003.78 1004.09 1004.45 1004.83 1005.26 1005.73 1006.26 1006.88 1007.58 1008.36 1009.22 1010.12 1011.05 1011.97 1012.87 1013.71 1014.49 1015.21 1015.87 1016.48 1017.06 1017.60 1018.12 1018.61 1019.06 1019.47 1019.81 1020.07 1020.23 1020.29 1020.23 1020.04
1008.92 1007.99 1007.00 1006.01 1005.09 1004.31 1003.70 1003.29 1003.07 1003.03 1003.13 1003.35 1003.64 1003.99 1004.36 1004.77 1005.23 1005.74 1006.32 1006.98 1007.72 1008.53 1009.38 1010.27 1011.15 1012.00 1012.81 1013.57 1014.28 1014.93 1015.55 1016.14 1016.71 1017.26 1017.81 1018.32 1018.80 1019.23 1019.57 1019.81 1019.93 1019.91 1019.72
1009.01 1008.07 1007.05 1006.02 1005.04 1004.20 1003.52 1003.05 1002.77 1002.68 1002.74 1002.92 1003.20 1003.53 1003.90 1004.30 1004.75 1005.24 1005.80 1006.43 1007.13 1007.91 1008.73 1009.58 1010.44 1011.28 1012.09 1012.85 1013.56 1014.23 1014.86 1015.47 1016.06 1016.64 1017.22 1017.77 1018.29 1018.76 1019.14 1019.41 1019.55 1019.52 1019.31
1009.06 1008.11 1007.06 1006.00 1004.98 1004.07 1003.33 1002.79 1002.44 1002.29 1002.30 1002.44 1002.68 1002.99 1003.35 1003.74 1004.17 1004.66 1005.20 1005.82 1006.51 1007.27 1008.09 1008.94 1009.81 1010.67 1011.50 1012.29 1013.04 1013.74 1014.40 1015.04 1015.65 1016.24 1016.83 1017.39 1017.91 1018.37 1018.75 1019.01 1019.12 1019.07 1018.82
1009.03 1008.07 1007.00 1005.91 1004.84 1003.88 1003.08 1002.46 1002.05 1001.82 1001.77 1001.85 1002.04 1002.31 1002.64 1003.01 1003.44 1003.92 1004.46 1005.08 1005.78 1006.55 1007.39 1008.28 1009.19 1010.10 1010.99 1011.84 1012.64 1013.40 1014.11 1014.78 1015.41 1016.01 1016.59 1017.13 1017.63 1018.06 1018.40 1018.61 1018.68 1018.57 1018.27
1008.88 1007.91 1006.82 1005.69 1004.60 1003.59 1002.72 1002.04 1001.55 1001.24 1001.11 1001.12 1001.25 1001.47 1001.75 1002.10 1002.51 1002.99 1003.54 1004.18 1004.90 1005.72 1006.61 1007.55 1008.53 1009.52 1010.50 1011.44 1012.32 1013.15 1013.91 1014.62 1015.27 1015.88 1016.44 1016.95 1017.41 1017.79 1018.06 1018.22 1018.22 1018.06 1017.70
1008.55 1007.55 1006.44 1005.30 1004.17 1003.13 1002.22 1001.48 1000.91 1000.53 1000.32 1000.25 1000.31 1000.47 1000.71 1001.03 1001.42 1001.90 1002.47 1003.14 1003.91 1004.78 1005.74 1006.77 1007.85 1008.93 1010.01 1011.04 1012.02 1012.92 1013.74 1014.49 1015.17 1015.78 1016.32 1016.80 1017.20 1017.52 1017.73 1017.82 1017.76 1017.53 1017.12
1007.94 1006.92 1005.80 1004.65 1003.52 1002.46 1001.52 1000.74 1000.13 999.69 999.41 999.28 999.27 999.37 999.58 999.87 1000.26 1000.74 1001.34 1002.05 1002.88 1003.82 1004.87 1005.99 1007.16 1008.35 1009.52 1010.65 1011.71 1012.68 1013.57 1014.35 1015.05 1015.65 1016.18 1016.62 1016.98 1017.24 1017.39 1017.41 1017.29 1017.00 1016.52
1007.01 1005.96 1004.85 1003.71 1002.60 1001.56 1000.63 999.84 999.21 998.74 998.42 998.25 998.20 998.27 998.45 998.74 999.13 999.64 1000.28 1001.04 1001.94 1002.96 1004.09 1005.30 1006.56 1007.83 1009.09 1010.30 1011.42 1012.45 1013.37 1014.18 1014.88 1015.49 1015.99 1016.40 1016.71 1016.92 1017.02 1016.99 1016.80 1016.45 1015.91
1005.74 1004.69 1003.59 1002.49 1001.42 1000.43 999.55 998.80 998.19 997.73 997.42 997.24 997.19 997.27 997.45 997.76 998.18 998.73 999.42 1000.25 1001.22 1002.32 1003.52 1004.80 1006.13 1007.47 1008.79 1010.04 1011.20 1012.25 1013.18 1013.99 1014.69 1015.27 1015.75 1016.12 1016.40 1016.56 1016.61 1016.52 1016.27 1015.86 1015.25
1004.20 1003.15 1002.09 1001.05 1000.06 999.15 998.35 997.68 997.14 996.74 996.48 996.34 996.34 996.45 996.69 997.04 997.53 998.15 998.90 999.81 1000.85 1002.01 1003.27 1004.60 1005.97 1007.33 1008.66 1009.91 1011.07 1012.10 1013.01 1013.80 1014.46 1015.00 1015.44 1015.78 1016.01 1016.13 1016.13 1015.98 1015.68 1015.20 1014.52
1002.51 1001.49 1000.49 999.52 998.64 997.84 997.15 996.59 996.16 995.86 995.69 995.65 995.73 995.92 996.24 996.68 997.25 997.96 998.80 999.78 1000.88 1002.09 1003.39 1004.74 1006.11 1007.45 1008.75 1009.96 1011.05 1012.03 1012.87 1013.59 1014.20 1014.68 1015.07 1015.35 1015.54 1015.61 1015.56 1015.36 1015.00 1014.46 1013.72
1000.89 999.90 998.97 998.10 997.33 996.66 996.11 995.68 995.39 995.22 995.18 995.25 995.45 995.76 996.19 996.74 997.41 998.21 999.14 1000.19 1001.34 1002.58 1003.88 1005.21 1006.54 1007.82 1009.03 1010.14 1011.14 1012.00 1012.75 1013.37 1013.88 1014.29 1014.60 1014.83 1014.96 1014.98 1014.88 1014.64 1014.23 1013.63 1012.84
999.54 998.61 997.75 996.99 996.33 995.80 995.39 995.11 994.96 994.93 995.03 995.24 995.57 996.01 996.56 997.23 998.00 998.89 999.89 1000.99 1002.17 1003.41 1004.68 1005.95 1007.19 1008.36 1009.45 1010.42 1011.27 1011.99 1012.59 1013.09 1013.48 1013.79 1014.02 1014.17 1014.24 1014.21 1014.07 1013.79 1013.34 1012.72 1011.89
998.70 997.82 997.05 996.38 995.84 995.44 995.16 995.02 995.00 995.11 995.34 995.68 996.14 996.69 997.36 998.12 998.98 999.94 1000.99 1002.11 1003.28 1004.48 1005.68 1006.84 1007.95 1008.98 1009.89 1010.68 1011.36 1011.91 1012.35 1012.69 1012.96 1013.15 1013.29 1013.36 1013.37 1013.30 1013.12 1012.82 1012.35 1011.72 1010.89
998.48 997.67 996.98 996.41 995.97 995.68 995.51 995.48 995.58 995.80 996.14 996.58 997.13 997.77 998.52 999.34 1000.26 1001.25 1002.30 1003.40 1004.52 1005.64 1006.72 1007.75 1008.70 1009.54 1010.26 1010.85 1011.33 1011.69 1011.95 1012.14 1012.27 1012.36 1012.40 1012.41 1012.36 1012.26 1012.06 1011.74 1011.29 1010.67 1009.87
998.91 998.19 997.57 997.09 996.75 996.54 996.46 996.52 996.69 996.99 997.39 997.89 998.49 999.18 999.95 1000.80 1001.72 1002.69 1003.70 1004.73 1005.76 1006.75 1007.69 1008.55 1009.31 1009.95 1010.46 1010.85 1011.12 1011.29 1011.39 1011.43 1011.43 1011.41 1011.37 1011.32 1011.24 1011.11 1010.90 1010.60 1010.17 1009.60 1008.86
999.94 999.29 998.77 998.36 998.09 997.95 997.93 998.04 998.26 998.58 999.01 999.52 1000.12 1000.80 1001.56 1002.37 1003.23 1004.13 1005.05 1005.97 1006.86 1007.70 1008.47 1009.14 1009.70 1010.13 1010.44 1010.63 1010.71 1010.72 1010.66 1010.57 1010.46 1010.35 1010.25 1010.15 1010.04 1009.91 1009.71 1009.44 1009.05 1008.54 1007.87
Thickness
5570 5572 5575 5576 5573 5572 5571 5571 5569 5563 5558 5553 5548 5542 5536 5531 5526 5521 5515 5507 5500 5493 5487 5484 5480 5475 5470 5464 5459 5455 5451 5447 5442 5440 5437 5436 5434 5434 5434 5433 5434 5434 5434
5553 5556 5560 5561 5560 5559 5560 5559 5555 5553 5548 5544 5538 5533 5529 5524 5519 5515 5509 5500 5493 5486 5480 5475 5469 5462 5456 5450 5445 5441 5436 5432 5427 5422 5418 5417 5415 5415 5415 5415 5417 5417 5417
5536 5541 5546 5547 5547 5549 5550 5547 5543 5540 5537 5533 5530 5526 5523 5518 5512 5508 5502 5494 5488 5481 5474 5468 5461 5453 5445 5439 5433 5428 5422 5418 5413 5407 5403 5401 5400 5400 5402 5403 5403 5403 5401
5516 5523 5529 5534 5537 5540 5539 5537 5534 5530 5526 5523 5522 5520 5515 5509 5504 5498 5492 5485 5480 5473 5466 5460 5453 5447 5439 5431 5423 5416 5409 5404 5399 5394 5390 5389 5389 5391 5392 5393 5394 5391 5390
5491 5501 5509 5517 5522 5525 5526 5525 5522 5520 5519 5514 5508 5505 5503 5499 5496 5489 5483 5475 5469 5462 5455 5449 5443 5436 5430 5423 5415 5406 5399 5392 5386 5381 5380 5380 5381 5382 5381 5382 5382 5381 5380
5463 5473 5484 5493 5500 5505 5508 5509 5508 5508 5504 5499 5497 5493 5490 5490 5488 5481 5473 5464 5458 5452 5446 5437 5430 5423 5418 5413 5407 5399 5392 5384 5376 5372 5374 5373 5372 5370 5369 5367 5365 5365 5365
5436 5446 5456 5466 5475 5482 5487 5489 5492 5492 5488 5487 5485 5481 5481 5480 5475 5468 5460 5452 5446 5441 5436 5428 5419 5413 5406 5402 5395 5389 5383 5378 5374 5369 5368 5365 5360 5356 5353 5351 5347 5343 5341
5411 5420 5429 5438 5448 5457 5463 5468 5471 5470 5471 5472 5470 5468 5466 5466 5461 5455 5446 5437 5431 5427 5423 5419 5412 5404 5397 5392 5385 5379 5374 5369 5366 5363 5359 5352 5347 5341 5337 5334 5329 5325 5322
5386 5395 5403 5411 5421 5431 5439 5445 5449 5449 5450 5451 5451 5450 5449 5450 5445 5440 5432 5423 5416 5412 5408 5403 5399 5393 5387 5380 5372 5365 5360 5355 5353 5350 5345 5339 5334 5327 5321 5314 5306 5299 5302
5358 5367 5375 5383 5392 5403 5413 5420 5425 5427 5428 5428 5429 5430 5430 5430 5428 5424 5419 5409 5400 5395 5390 5388 5385 5381 5374 5369 5359 5352 5346 5343 5338 5333 5329 5323 5316 5308 5300 5294 5286 5276 5272
5328 5337 5346 5355 5364 5375 5387 5394 5399 5402 5404 5405 5406 5408 5408 5409 5406 5407 5405 5395 5390 5382 5378 5375 5371 5367 5361 5356 5348 5340 5336 5332 5325 5317 5309 5303 5296 5289 5282 5273 5266 5260 5254
5297 5307 5317 5328 5339 5349 5359 5368 5374 5379 5381 5384 5384 5385 5386 5386 5383 5388 5390 5383 5376 5370 5368 5365 5359 5354 5348 5342 5336 5329 5325 5320 5307 5298 5290 5283 5279 5272 5265 5256 5249 5244 5239
5266 5278 5289 5301 5315 5324 5333 5345 5351 5356 5362 5366 5366 5367 5366 5367 5366 5369 5374 5370 5364 5356 5352 5350 5345 5340 5334 5327 5323 5317 5308 5300 5291 5281 5273 5267 5261 5254 5247 5240 5233 5229 5226
5234 5247 5260 5273 5290 5304 5314 5323 5332 5339 5344 5348 5350 5352 5352 5352 5351 5352 5357 5355 5349 5342 5335 5330 5327 5323 5317 5309 5303 5296 5288 5282 5275 5266 5258 5250 5243 5235 5227 5222 5218 5214 5215
5203 5217 5230 5244 5261 5280 5294 5305 5314 5325 5330 5334 5338 5339 5339 5341 5345 5344 5346 5344 5338 5330 5321 5313 5309 5305 5295 5285 5277 5271 5266 5260 5254 5248 5240 5232 5224 5216 5208 5203 5198 5194 5193
5173 5189 5201 5216 5232 5250 5269 5284 5297 5306 5313 5318 5322 5324 5328 5331 5329 5330 5332 5330 5322 5316 5308 5302 5296 5289 5280 5270 5260 5253 5247 5243 5237 5230 5221 5213 5205 5197 5190 5184 5179 5176 5176
5147 5161 5173 5188 5202 5219 5238 5256 5272 5282 5293 5302 5307 5311 5313 5315 5316 5315 5314 5310 5303 5298 5292 5289 5281 5272 5263 5254 5245 5238 5232 5225 5219 5211 5203 5195 5186 5177 5170 5165 5162 5160 5161
5131 5142 5152 5165 5177 5192 5210 5229 5244 5255 5265 5280 5289 5294 5298 5299 5300 5300 5297 5292 5288 5283 5276 5270 5262 5252 5243 5234 5226 5219 5212 5205 5198 5190 5182 5174 5165 5157 5152 5148 5146 5145 5147
5118 5129 5138 5149 5161 5174 5191 5208 5222 5231 5240 5252 5262 5270 5279 5282 5282 5282 5281 5282 5279 5270 5257 5248 5239 5230 5221 5213 5205 5198 5190 5183 5175 5168 5161 5153 5146 5141 5137 5135 5134 5135 5135
5111 5120 5129 5140 5152 5164 5178 5193 5204 5211 5217 5228 5239 5248 5255 5260 5263 5265 5266 5266 5260 5248 5236 5224 5214 5206 5199 5191 5183 5175 5168 5161 5155 5149 5143 5137 5132 5128 5127 5124 5124 5125 5127
5108 5118 5128 5139 5151 5163 5174 5183 5189 5193 5200 5208 5219 5227 5235 5238 5241 5243 5245 5240 5231 5219 5207 5197 5188 5181 5175 5169 5162 5156 5150 5145 5140 5135 5129 5124 5120 5117 5115 5114 5115 5116 5117
5111 5124 5136 5148 5159 5168 5173 5176 5178 5181 5186 5193 5200 5207 5214 5213 5215 5214 5208 5201 5193 5186 5178 5171 5165 5159 5155 5151 5146 5140 5135 5130 5125 5121 5117 5113 5109 5107 5105 5106 5107 5108 5106
5119 5131 5143 5154 5162 5167 5168 5169 5170 5173 5177 5182 5186 5188 5190 5187 5183 5176 5169 5164 5160 5155 5150 5147 5144 5139 5135 5133 5130 5127 5123 5119 5116 5112 5107 5103 5100 5098 5097 5099 5100 5098 5095
5118 5128 5138 5147 5154 5157 5159 5161 5163 5166 5168 5167 5165 5164 5160 5156 5151 5146 5142 5139 5136 5132 5129 5127 5125 5123 5120 5117 5114 5112 5110 5108 5104 5101 5098 5095 5092 5091 5091 5093 5091 5087 5083
5113 5120 5128 5134 5139 5143 5146 5148 5150 5149 5146 5144 5143 5140 5137 5133 5130 5126 5123 5121 5118 5115 5112 5110 5109 5107 5106 5104 5102 5101 5099 5098 5096 5094 5091 5088 5086 5085 5086 5084 5081 5076 5071
5104 5110 5115 5119 5123 5126 5128 5129 5127 5125 5123 5122 5121 5120 5118 5115 5112 5109 5107 5105 5103 5100 5097 5096 5095 5094 5093 5093 5092 5091 5091 5091 5090 5088 5086 5084 5083 5081 5078 5073 5069 5064 5059